• In Österreich
  • Länderverzeichnis
  • Für 7 Tage
  • Wassertemperatur
  • Satellitenkarten
  • Wetterkarte
  • News
  • Widgets
  • user-avatar
    Anmelden

    Stündliche Wetter Sölden

    Heute, 20 Oktober, Samstag

    Zeit Temperatur Niederschläge Wind Luftdruck Luftfeuchtigkeit
    00:00 +2°C° 0 mm 1 m/S 585 mmHg 87%
    01:00 +2°C° 0 mm 1 m/S 585 mmHg 87%
    02:00 +2°C° 0 mm 1 m/S 585 mmHg 86%
    03:00 +2°C° 0 mm 1 m/S 585 mmHg 86%
    04:00 +1°C° 0 mm 1 m/S 585 mmHg 86%
    05:00 +1°C° 0 mm 1 m/S 585 mmHg 84%
    06:00 +1°C° 0 mm 1 m/S 585 mmHg 83%
    07:00 +1°C° 0 mm 1 m/S 585 mmHg 82%
    08:00 +4°C° 0 mm 1 m/S 587 mmHg 69%
    09:00 +6°C° 0 mm 1 m/S 588 mmHg 57%
    10:00 +9°C° 0 mm 1 m/S 590 mmHg 45%
    11:00 +10°C° 0 mm 1 m/S 590 mmHg 42%
    12:00 +11°C° 0 mm 1 m/S 590 mmHg 39%
    13:00 +12°C° 0 mm 1 m/S 591 mmHg 35%
    14:00 +10°C° 0 mm 2 m/S 590 mmHg 40%
    15:00 +9°C° 0 mm 2 m/S 590 mmHg 44%
    16:00 +9°C° 0 mm 2 m/S 589 mmHg 48%
    17:00 +7°C° 0 mm 1 m/S 588 mmHg 58%
    18:00 +5°C° 0 mm 1 m/S 587 mmHg 67%
    19:00 +3°C° 0 mm 1 m/S 587 mmHg 77%
    20:00 +3°C° 0 mm 1 m/S 587 mmHg 79%
    21:00 +2°C° 0 mm 1 m/S 586 mmHg 82%
    22:00 +1°C° 0 mm 2 m/S 586 mmHg 84%
    23:00 -1°C° 0 mm 2 m/S 586 mmHg 83%

    Morgen, 21 Oktober, Sonntag

    Zeit Temperatur Niederschläge Wind Luftdruck Luftfeuchtigkeit
    00:00 -1°C° 0 mm 2 m/S 586 mmHg 82%
    01:00 -1°C° 0 mm 2 m/S 585 mmHg 81%
    02:00 -1°C° 0 mm 2 m/S 585 mmHg 77%
    03:00 -1°C° 0 mm 2 m/S 585 mmHg 74%
    04:00 -2°C° 0 mm 2 m/S 584 mmHg 70%
    05:00 -2°C° 0 mm 2 m/S 584 mmHg 68%
    06:00 -2°C° 0 mm 2 m/S 584 mmHg 67%
    07:00 -2°C° 0 mm 2 m/S 584 mmHg 65%
    08:00 +2°C° 0 mm 2 m/S 585 mmHg 56%
    09:00 +4°C° 0 mm 2 m/S 586 mmHg 48%
    10:00 +6°C° 0 mm 2 m/S 587 mmHg 39%
    11:00 +7°C° 0 mm 3 m/S 587 mmHg 37%
    12:00 +8°C° 0 mm 3 m/S 587 mmHg 35%
    13:00 +8°C° 0 mm 3 m/S 587 mmHg 33%
    14:00 +7°C° 0 mm 3 m/S 587 mmHg 38%
    15:00 +5°C° 0 mm 3 m/S 586 mmHg 43%
    16:00 +4°C° 0 mm 3 m/S 586 mmHg 48%
    17:00 +3°C° 0.1 mm 2 m/S 585 mmHg 59%
    18:00 +1°C° 0.1 mm 2 m/S 584 mmHg 69%
    19:00 -2°C° 0.1 mm 2 m/S 584 mmHg 80%
    20:00 -1°C° 0 mm 1 m/S 584 mmHg 82%
    21:00 -1°C° 0 mm 1 m/S 584 mmHg 83%
    22:00 -2°C° 0 mm 1 m/S 584 mmHg 84%
    23:00 -2°C° 0 mm 1 m/S 583 mmHg 80%

    übermorgen, 22 Oktober, Montag

    Zeit Temperatur Niederschläge Wind Luftdruck Luftfeuchtigkeit
    00:00 -2°C° 0 mm 1 m/S 583 mmHg 75%
    01:00 -2°C° 0 mm 1 m/S 583 mmHg 71%
    02:00 -3°C° 0 mm 1 m/S 583 mmHg 66%
    03:00 -3°C° 0 mm 1 m/S 582 mmHg 61%
    04:00 -3°C° 0 mm 1 m/S 582 mmHg 56%
    05:00 -3°C° 0 mm 1 m/S 582 mmHg 53%
    06:00 -3°C° 0 mm 1 m/S 582 mmHg 50%
    07:00 -3°C° 0 mm 1 m/S 582 mmHg 47%
    08:00 0°C° 0 mm 1 m/S 584 mmHg 41%
    09:00 +3°C° 0 mm 1 m/S 585 mmHg 35%
    10:00 +5°C° 0 mm 1 m/S 586 mmHg 29%
    11:00 +5°C° 0 mm 2 m/S 586 mmHg 29%
    12:00 +6°C° 0 mm 2 m/S 587 mmHg 29%
    13:00 +7°C° 0 mm 2 m/S 587 mmHg 29%
    14:00 +6°C° 0 mm 2 m/S 586 mmHg 34%
    15:00 +5°C° 0 mm 2 m/S 586 mmHg 39%
    16:00 +5°C° 0 mm 2 m/S 585 mmHg 44%
    17:00 +2°C° 0 mm 2 m/S 585 mmHg 54%
    18:00 -1°C° 0 mm 2 m/S 584 mmHg 64%
    19:00 -3°C° 0 mm 2 m/S 584 mmHg 75%
    20:00 -3°C° 0 mm 2 m/S 584 mmHg 77%
    21:00 -3°C° 0 mm 2 m/S 584 mmHg 79%
    22:00 -4°C° 0 mm 2 m/S 584 mmHg 81%
    23:00 -4°C° 0 mm 2 m/S 584 mmHg 82%

    23 Oktober, Dienstag

    Zeit Temperatur Niederschläge Wind Luftdruck Luftfeuchtigkeit
    00:00 -4°C° 0 mm 2 m/S 584 mmHg 82%
    01:00 -4°C° 0 mm 2 m/S 584 mmHg 83%
    02:00 -4°C° 0 mm 2 m/S 584 mmHg 82%
    03:00 -5°C° 0 mm 2 m/S 584 mmHg 81%
    04:00 -5°C° 0 mm 2 m/S 584 mmHg 81%
    05:00 -4°C° 0 mm 2 m/S 584 mmHg 78%
    06:00 -4°C° 0 mm 2 m/S 584 mmHg 75%
    07:00 -4°C° 0 mm 2 m/S 584 mmHg 72%
    08:00 -2°C° 0 mm 3 m/S 585 mmHg 66%
    09:00 -1°C° 0 mm 3 m/S 586 mmHg 60%
    10:00 +1°C° 0 mm 3 m/S 587 mmHg 53%
    11:00 +2°C° 0 mm 3 m/S 587 mmHg 50%
    12:00 +4°C° 0 mm 2 m/S 587 mmHg 47%
    13:00 +5°C° 0 mm 2 m/S 588 mmHg 44%
    14:00 +4°C° 0 mm 2 m/S 587 mmHg 46%
    15:00 +4°C° 0 mm 2 m/S 587 mmHg 48%
    16:00 +3°C° 0 mm 2 m/S 586 mmHg 51%
    17:00 +1°C° 0 mm 2 m/S 586 mmHg 59%
    18:00 -2°C° 0 mm 2 m/S 585 mmHg 68%
    19:00 -4°C° 0 mm 2 m/S 584 mmHg 77%
    20:00 -4°C° 0 mm 2 m/S 584 mmHg 76%
    21:00 -4°C° 0 mm 2 m/S 584 mmHg 76%
    22:00 -4°C° 0 mm 2 m/S 584 mmHg 75%
    23:00 -4°C° 0 mm 2 m/S 584 mmHg 71%

    24 Oktober, Mittwoch

    Zeit Temperatur Niederschläge Wind Luftdruck Luftfeuchtigkeit
    00:00 -3°C° 0 mm 2 m/S 584 mmHg 67%
    01:00 -3°C° 0 mm 2 m/S 584 mmHg 62%
    02:00 -3°C° 0 mm 2 m/S 584 mmHg 63%
    03:00 -2°C° 0 mm 3 m/S 584 mmHg 64%
    04:00 -2°C° 0 mm 3 m/S 584 mmHg 64%
    05:00 -2°C° 0.1 mm 3 m/S 584 mmHg 67%
    06:00 -1°C° 0.1 mm 3 m/S 584 mmHg 69%
    07:00 -1°C° 0.1 mm 3 m/S 584 mmHg 72%
    08:00 0°C° 0.1 mm 3 m/S 584 mmHg 71%
    09:00 +2°C° 0.1 mm 3 m/S 585 mmHg 70%
    10:00 +3°C° 0.1 mm 3 m/S 586 mmHg 70%
    11:00 +4°C° 0 mm 3 m/S 586 mmHg 67%
    12:00 +5°C° 0 mm 3 m/S 586 mmHg 65%
    13:00 +7°C° 0 mm 3 m/S 586 mmHg 62%
    14:00 +5°C° 0.1 mm 3 m/S 586 mmHg 65%
    15:00 +5°C° 0.1 mm 3 m/S 586 mmHg 68%
    16:00 +4°C° 0.1 mm 3 m/S 586 mmHg 71%
    17:00 +3°C° 0.1 mm 3 m/S 585 mmHg 76%
    18:00 +2°C° 0.1 mm 3 m/S 585 mmHg 80%
    19:00 +1°C° 0.1 mm 3 m/S 584 mmHg 84%
    20:00 0°C° 0 mm 3 m/S 584 mmHg 85%
    21:00 0°C° 0 mm 3 m/S 585 mmHg 85%
    22:00 0°C° 0 mm 3 m/S 585 mmHg 86%
    23:00 0°C° 0 mm 3 m/S 585 mmHg 87%

    25 Oktober, Donnerstag

    Zeit Temperatur Niederschläge Wind Luftdruck Luftfeuchtigkeit
    00:00 0°C° 0 mm 3 m/S 584 mmHg 87%
    01:00 0°C° 0 mm 3 m/S 584 mmHg 88%
    02:00 -1°C° 0 mm 3 m/S 584 mmHg 88%
    03:00 -1°C° 0 mm 3 m/S 584 mmHg 88%
    04:00 -1°C° 0 mm 3 m/S 584 mmHg 89%
    05:00 -1°C° 0 mm 2 m/S 584 mmHg 89%
    06:00 -1°C° 0 mm 2 m/S 584 mmHg 89%
    07:00 -2°C° 0 mm 2 m/S 584 mmHg 89%
    08:00 +1°C° 0 mm 2 m/S 585 mmHg 80%
    09:00 +3°C° 0 mm 2 m/S 586 mmHg 70%
    10:00 +5°C° 0 mm 2 m/S 587 mmHg 61%
    11:00 +8°C° 0 mm 1 m/S 587 mmHg 55%
    12:00 +9°C° 0 mm 1 m/S 587 mmHg 49%
    13:00 +11°C° 0 mm 1 m/S 588 mmHg 44%
    14:00 +10°C° 0 mm 1 m/S 587 mmHg 48%
    15:00 +9°C° 0 mm 1 m/S 586 mmHg 52%
    16:00 +8°C° 0 mm 1 m/S 586 mmHg 56%
    17:00 +6°C° 0 mm 1 m/S 585 mmHg 64%
    18:00 +4°C° 0 mm 1 m/S 584 mmHg 71%
    19:00 +1°C° 0 mm 2 m/S 583 mmHg 79%
    20:00 -1°C° 0 mm 2 m/S 583 mmHg 80%
    21:00 -1°C° 0 mm 2 m/S 583 mmHg 80%
    22:00 -1°C° 0 mm 2 m/S 583 mmHg 81%
    23:00 -2°C° 0 mm 2 m/S 583 mmHg 78%
    Mehr zeigen